Location: Unspecified
(0.0000°N, 0.0000°E)
Time: 01:39:53
(UTC+00:00)

ISS - Pass Details

Date: 19 February 2019
Orbit: 403 x 411 km, 51.6° (Epoch: 16 February)

Event Time Altitude Azimuth Distance (km) Brightness Sun altitude
Exits shadow 05:33:41 - 231° (SW) 1,942 -0.8 -9.8°
Reaches altitude 10° 05:34:56 10° 236° (WSW) 1,453 -1.4 -9.5°
Maximum altitude 05:37:58 36° 305° (NW) 649 -3.3 -8.8°
Drops below altitude 10° 05:40:59 10° 14° (NNE) 1,444 -1.0 -8.1°
Sets 05:43:09 0° 23° (NNE) 2,299 0.2 -7.5°
